Theta_e
324 325 324 325 325 324 324 325 327 328 329 351 351 348 347 348 351 353 353 355 359 360 361 358 355 355 355 355 355 355 356 359 359 359 360 358 356 351 351 349 348 344 349 351
326 324 324 323 323 323 323 324 325 327 330 344 345 344 346 345 345 349 350 349 351 353 358 359 361 360 359 358 358 357 358 360 360 360 361 359 360 361 360 359 353 352 348 347
325 324 323 323 323 323 323 323 323 326 333 339 343 345 344 344 342 343 345 347 348 348 350 355 357 358 360 361 360 359 359 359 360 360 361 361 361 360 361 360 360 355 351 349
324 324 325 324 324 327 326 323 324 327 331 340 342 342 342 341 341 341 341 342 344 346 346 348 352 353 354 357 360 361 361 361 360 360 361 362 361 361 361 360 356 360 356 350
321 321 322 322 327 328 326 326 332 330 334 336 340 341 343 341 339 338 339 340 340 342 345 348 349 347 348 354 360 359 361 362 362 361 362 363 363 363 362 361 355 361 360 357
319 319 319 329 330 328 328 326 335 336 336 336 339 343 346 340 337 335 335 337 339 341 344 347 344 344 347 354 362 359 358 360 362 363 363 363 362 361 362 362 360 361 362 361
317 318 319 328 327 327 324 329 331 331 332 334 339 341 339 338 336 335 334 337 340 342 343 342 342 349 351 348 357 358 360 363 362 362 362 361 362 362 363 362 361 358 356 360
318 318 318 325 324 326 329 329 328 327 327 330 332 338 339 336 336 336 336 336 338 342 342 343 342 348 349 348 350 351 353 357 361 363 361 362 361 362 364 362 363 359 360 357
323 325 326 324 326 325 324 325 327 325 325 326 330 334 334 334 332 335 335 335 335 338 340 341 342 341 343 348 351 355 356 359 358 359 359 359 360 360 361 362 362 361 359 360
318 318 319 320 322 322 323 325 324 323 325 328 330 331 333 334 333 333 334 333 333 335 338 338 340 342 344 343 345 350 351 352 352 355 358 355 358 355 356 355 357 356 358 358
320 319 318 320 320 321 321 323 324 324 325 327 329 328 327 328 328 329 332 333 332 334 334 335 337 339 342 342 341 347 346 347 347 348 346 347 348 351 348 350 350 349 348 350
319 318 319 321 321 320 319 322 323 323 325 326 326 325 324 325 324 325 327 331 331 331 332 334 334 336 341 343 341 342 347 347 343 348 348 348 345 340 339 339 345 347 348 347
317 317 317 317 317 317 318 321 322 324 324 325 324 325 324 322 321 322 326 326 328 327 328 331 334 334 335 340 345 342 346 342 345 347 341 342 342 341 341 341 338 341 342 342
315 314 314 315 316 316 319 320 320 322 322 322 322 322 321 319 319 320 323 324 324 325 326 327 330 331 333 336 339 342 343 344 347 343 344 349 343 343 345 350 345 342 341 342
314 313 313 314 315 317 318 319 320 320 320 318 318 318 318 319 320 319 320 321 323 323 324 325 326 329 331 334 337 339 339 340 343 346 347 348 345 346 344 344 341 344 342 340
315 314 312 312 312 313 315 318 319 321 320 317 316 317 318 317 319 320 319 319 319 322 322 322 325 326 328 331 335 339 338 340 342 344 346 347 347 347 346 346 346 341 338 336
314 313 313 313 313 313 314 317 319 321 321 320 320 319 318 318 320 319 319 321 320 319 320 320 323 324 325 327 332 334 336 338 338 338 340 343 345 345 345 344 345 347 344 344
313 313 313 314 313 313 315 316 318 319 321 321 319 318 317 319 319 318 317 318 319 318 316 318 319 323 322 327 330 333 335 335 336 337 338 338 338 342 343 344 345 345 345 344
312 312 312 312 314 315 315 315 317 316 319 318 316 315 317 318 319 318 316 316 315 314 313 316 319 322 319 325 328 330 333 335 335 335 335 335 334 335 338 339 340 340 340 340
311 311 312 312 313 314 315 316 316 316 317 316 314 314 316 318 318 317 316 314 313 312 313 314 319 320 318 320 325 327 329 331 331 332 332 333 333 332 333 334 334 336 336 336
311 311 311 312 313 313 314 314 315 314 313 313 315 315 315 316 318 317 315 313 311 311 311 311 312 316 317 316 316 323 325 326 328 329 329 330 331 332 332 333 334 334 334 333
310 310 310 311 310 312 312 312 310 310 310 309 311 313 314 315 314 314 314 311 310 309 309 308 308 309 312 315 314 317 319 321 322 323 325 326 326 328 328 328 330 329 329 329
310 309 308 309 309 309 310 310 309 307 306 307 307 309 310 311 313 313 312 310 309 308 308 307 308 308 309 310 311 311 312 313 316 317 318 320 320 322 321 321 322 322 322 323
310 309 308 308 308 309 307 306 306 306 306 308 308 309 310 311 311 310 308 307 307 307 306 307 307 308 309 309 308 307 309 308 307 309 312 312 313 315 316 315 316 316 317 318
310 309 308 308 307 307 308 308 308 308 309 309 310 310 309 309 310 309 309 308 308 309 309 308 307 308 309 309 309 307 305 305 305 304 304 304 305 306 308 309 310 308 310 311
311 311 310 309 309 309 308 308 309 308 308 307 308 307 307 307 307 307 307 308 308 308 307 306 307 308 308 308 308 308 308 307 306 305 305 305 303 303 303 301 300 301 303 302
309 310 310 310 310 309 309 310 309 309 308 308 307 307 307 306 306 307 307 307 307 306 306 306 306 304 305 308 308 307 306 306 307 307 307 307 306 306 305 304 303 303 301 301
Wind_Speed
17 5 8 3 9 9 11 12 13 7 12 17 9 7 6 8 9 8 9 12 11 9 4 4 8 13 17 20 21 24 26 24 25 26 25 26 25 24 23 22 20 20 18 16
12 10 11 12 11 11 11 11 10 13 14 14 7 6 6 8 10 9 7 7 8 12 3 0 2 6 12 15 18 19 21 22 22 22 23 26 23 21 20 20 21 20 19 17
15 17 15 17 14 14 14 14 14 14 6 10 7 5 6 5 8 8 8 6 4 3 2 5 0 4 8 10 15 18 19 19 20 22 22 23 23 23 22 20 20 20 19 17
11 13 20 7 12 6 10 15 11 10 8 10 10 6 3 5 3 8 9 9 8 6 4 3 3 7 15 10 12 15 16 17 18 18 19 19 23 25 24 21 22 19 18 17
13 13 14 10 6 9 11 13 16 10 4 9 10 8 9 2 2 5 9 10 11 9 6 5 5 5 4 5 10 14 15 14 15 15 16 17 19 22 23 22 23 19 16 15
8 13 17 15 10 6 0 10 15 13 7 9 10 10 9 4 4 4 8 8 9 9 7 6 5 5 4 3 3 9 11 12 13 14 15 15 17 20 23 22 21 17 16 15
11 12 8 9 3 1 11 1 7 10 8 10 10 13 4 4 6 6 6 9 8 8 7 9 3 4 5 3 9 14 10 7 12 14 15 17 16 18 18 20 20 21 19 18
9 13 13 8 5 7 5 3 5 7 9 13 14 7 3 3 5 6 7 9 11 9 9 9 2 2 3 5 1 6 11 9 10 11 11 11 16 15 16 17 17 20 17 17
8 6 5 5 6 4 4 4 4 6 10 12 12 6 3 2 7 7 9 10 13 13 9 9 9 4 1 2 6 8 8 7 9 14 9 16 15 18 16 15 15 13 15 15
6 4 6 7 3 2 4 4 5 6 9 8 9 10 9 4 5 6 8 10 11 11 13 11 12 10 7 2 6 7 9 4 6 7 8 13 12 12 15 13 14 14 16 16
10 13 11 12 11 6 5 4 5 7 6 4 2 1 6 5 6 8 7 7 9 11 12 11 10 8 9 6 2 1 5 5 8 7 9 11 12 10 11 12 19 21 22 24
5 4 7 1 4 6 6 5 4 5 5 3 4 3 4 6 7 8 9 7 7 10 10 12 12 9 6 5 5 1 0 2 5 7 10 10 13 14 18 26 28 25 24 20
8 2 4 8 4 6 7 7 3 1 5 5 3 4 6 5 7 9 7 8 8 10 11 11 12 12 8 4 3 5 4 3 2 4 3 1 1 3 8 19 27 26 24 27
5 4 6 7 10 10 9 6 4 4 7 13 10 8 8 7 5 3 7 8 10 10 11 10 11 13 8 4 3 3 4 2 3 8 7 3 5 6 9 10 14 16 22 15
8 7 7 5 7 9 6 6 8 7 11 10 8 6 7 9 5 4 7 11 9 10 11 11 11 14 8 6 1 2 4 2 1 3 7 11 10 6 6 8 9 14 16 14
9 8 8 10 11 11 12 12 7 11 13 14 14 6 3 5 7 7 8 9 10 13 13 12 10 13 12 7 1 3 1 2 3 2 2 4 5 9 8 6 5 5 7 3
9 11 10 12 12 12 12 13 10 8 14 12 7 8 5 2 5 5 7 10 9 8 10 10 8 14 11 9 6 3 1 2 1 2 3 4 4 7 5 4 6 8 4 3
4 4 5 4 5 8 10 9 7 6 8 11 10 9 9 4 4 7 8 9 4 7 11 12 15 15 14 10 8 6 5 4 2 2 3 3 3 4 5 6 5 2 5 7
3 4 4 5 4 6 5 10 8 5 9 9 8 6 7 5 4 5 6 10 7 7 11 11 15 9 14 14 10 10 9 6 5 2 1 1 1 2 4 4 5 6 9 13
5 4 4 4 5 8 5 5 6 8 10 9 8 9 7 5 4 5 8 10 10 11 11 12 10 11 13 18 15 13 11 7 5 5 2 3 4 6 6 5 4 4 5 7
6 4 4 5 6 5 4 4 7 7 9 10 10 9 7 6 5 2 4 7 11 11 12 14 12 11 13 16 16 16 14 10 7 6 3 4 6 8 9 7 6 5 3 2
8 7 7 7 8 7 7 7 7 9 12 15 14 10 10 9 8 7 10 8 9 12 12 13 14 18 16 13 15 19 17 15 12 9 8 7 9 8 11 12 9 8 7 5
12 11 11 10 12 12 12 11 11 14 15 11 12 11 9 8 6 8 9 8 9 12 13 15 19 18 17 13 13 14 17 18 16 15 13 13 13 14 14 16 15 14 13 11
14 12 13 13 14 14 15 15 14 14 13 10 9 6 7 5 5 5 7 10 11 11 14 13 17 17 14 12 13 12 12 15 17 18 17 17 18 18 20 22 21 20 18 17
14 14 13 13 13 16 17 15 14 12 10 8 7 6 5 5 9 7 5 5 7 6 5 13 16 14 11 11 11 12 14 13 12 13 17 19 20 18 17 19 19 22 19 17
12 11 11 10 10 11 11 12 10 9 10 7 7 6 7 6 5 5 4 6 5 6 7 7 6 9 9 9 9 9 10 10 10 11 12 12 13 18 18 18 20 17 16 18
8 9 9 9 9 9 8 8 12 11 10 8 9 7 7 4 5 5 5 6 6 4 4 7 6 7 6 6 6 7 8 7 9 9 9 9 10 11 11 12 15 13 13 11
Wind_Direction
273 129 284 309 200 203 239 263 274 243 306 77 86 81 31 26 358 20 19 24 25 45 75 125 206 206 205 212 214 213 214 214 222 223 225 231 234 236 239 243 245 244 235 236
263 258 240 254 227 245 257 271 274 276 285 90 84 67 30 18 6 1 27 20 360 18 40 52 209 208 219 223 223 215 219 221 223 226 224 229 231 232 233 235 242 242 242 236
253 246 236 243 246 253 255 245 248 248 17 14 346 50 360 5 353 340 350 353 1 321 328 150 103 239 237 225 226 223 224 224 226 227 227 227 229 228 229 232 237 244 238 234
263 263 244 226 265 292 285 239 251 259 318 25 349 349 312 319 0 328 329 332 332 325 311 278 295 265 221 213 233 226 226 225 227 227 229 229 228 227 228 228 240 237 240 232
247 246 261 246 176 235 247 250 345 251 0 346 317 309 271 257 348 344 329 326 328 328 325 290 288 304 302 279 235 227 220 223 224 223 223 226 227 230 228 229 238 234 230 229
237 252 258 62 60 24 308 234 23 4 342 316 322 270 62 37 347 340 334 338 335 343 338 315 311 332 341 298 192 216 219 224 221 217 220 223 227 230 229 228 232 231 229 229
232 252 257 72 77 173 234 57 35 9 343 326 300 302 28 356 356 4 351 350 348 348 346 333 344 44 16 315 204 190 182 187 209 214 214 214 218 229 231 231 227 238 230 232
232 259 239 6 252 270 51 68 16 357 341 328 321 322 298 33 17 24 10 3 7 10 14 15 15 108 11 326 264 198 215 212 215 216 210 216 215 221 225 227 232 230 236 230
336 36 71 50 38 39 11 342 347 331 324 322 307 287 314 354 341 6 12 5 4 6 9 23 21 360 266 78 124 123 112 179 200 211 206 213 206 213 218 229 225 236 230 234
303 251 263 232 174 314 344 343 343 329 318 321 285 281 275 264 322 323 344 8 359 8 15 15 31 26 12 258 192 174 150 149 154 148 179 221 233 232 225 228 229 227 229 228
262 266 270 247 251 251 293 301 326 331 306 314 39 310 8 34 6 345 335 350 9 5 357 7 6 14 34 41 181 168 250 250 232 212 184 183 173 198 215 240 250 235 242 244
262 27 293 336 79 187 250 292 308 335 250 122 89 41 31 18 21 10 354 335 354 6 2 359 353 352 11 60 100 209 162 327 351 220 237 258 253 245 246 261 261 252 255 262
263 292 274 267 235 247 251 249 303 26 239 224 128 97 49 28 21 19 14 5 358 358 356 355 353 343 1 355 40 50 303 229 186 123 47 1 228 286 273 270 259 263 257 249
219 217 243 243 249 237 225 222 202 105 124 123 96 52 71 30 7 21 24 23 8 7 5 358 353 336 340 344 310 343 354 326 233 239 249 271 321 328 308 270 267 240 230 222
213 225 255 229 227 231 231 240 201 141 158 173 132 36 50 62 37 350 41 57 25 12 13 9 1 342 342 342 305 2 357 18 345 275 266 259 250 279 286 316 318 236 228 216
226 241 249 252 254 244 231 230 225 181 155 140 167 198 287 63 77 39 31 35 28 9 354 29 4 342 358 348 7 233 267 17 24 359 300 310 300 283 297 319 294 353 263 114
251 259 253 257 241 229 216 224 220 202 193 190 157 144 121 99 106 93 71 65 12 7 6 24 1 346 354 10 39 45 214 190 161 18 23 348 312 301 324 347 11 24 343 342
256 259 230 230 242 217 207 215 205 191 187 168 179 163 121 83 69 74 82 84 54 359 23 19 28 6 354 21 37 46 41 37 40 14 55 7 295 274 292 300 308 312 195 178
158 180 186 183 182 163 173 205 197 187 169 171 150 141 120 114 75 57 65 77 71 41 17 42 30 360 0 28 30 39 47 45 37 44 340 263 263 202 219 197 180 174 188 205
146 169 184 194 187 191 192 173 176 152 152 158 157 144 125 127 128 100 70 59 46 37 24 51 45 22 28 25 30 39 46 54 74 90 104 115 116 117 125 132 153 188 209 227
129 136 140 148 162 180 172 164 147 144 148 146 148 146 149 146 135 162 104 57 43 47 41 31 47 49 32 37 41 39 45 46 55 79 97 114 129 130 124 129 133 137 148 198
132 119 119 109 142 139 135 140 136 140 136 137 127 129 122 130 129 104 75 75 53 53 48 45 52 63 64 44 39 44 47 52 57 69 89 97 98 107 111 107 106 111 118 124
125 122 119 119 127 118 129 138 142 137 139 139 137 122 120 124 143 136 106 81 74 65 49 53 67 62 55 55 54 31 40 52 59 68 72 79 84 89 89 90 92 91 94 103
121 124 128 125 125 120 115 124 139 143 148 142 123 127 124 135 122 106 107 92 81 65 62 67 70 62 56 55 59 61 55 37 54 65 73 76 77 84 86 84 83 79 84 87
125 122 128 136 137 133 128 132 129 128 128 132 138 132 103 91 100 106 107 93 75 70 48 52 58 55 55 56 53 58 70 72 67 59 61 64 66 66 73 79 80 79 72 71
150 138 136 131 128 146 151 158 151 149 141 141 132 112 106 102 101 104 104 101 92 75 64 44 53 52 48 56 59 66 63 64 67 69 67 62 52 55 55 59 69 62 68 61
129 143 135 134 131 135 139 150 156 156 147 138 142 140 129 109 126 132 114 99 95 89 78 57 34 30 56 57 50 53 57 72 85 75 68 64 64 64 55 45 45 55 63 81